This demonstration page uses our WeatherBlox Daily Observations layout. Learn more.

Left ArrowRight Arrow

44.89941, -97.11507

Hourly Observations for December 5, 2022

Temp ( °F °C ) Dew Point ( °F °C ) Humidity (%) Winds ( mph kmh ) Pressure ( in mb ) Visibility ( mi km ) Precip ( " mm )
12:53 am 00:53 Mostly Clear 27 -2.8 20 -6.7 74 74 NNW 8 13 29.80 1009 10 16 0.00 0.00
1:53 am 01:53 Partly Cloudy 26 -3.3 20 -6.7 77 77 NNW 14 22 29.81 1010 10 16 0.00 0.00
2:53 am 02:53 Clear 24 -4.4 19 -7.2 81 81 N 9 15 29.84 1011 10 16 0.00 0.00
3:53 am 03:53 Mostly Clear 23 -5 18 -7.8 81 81 N 9 15 29.84 1011 10 16 0.00 0.00
4:53 am 04:53 Mostly Cloudy 22 -5.6 18 -7.8 84 84 N 8 13 29.85 1011 10 16 0.00 0.00
5:53 am 05:53 Mostly Cloudy 23 -5 18 -7.8 81 81 NNW 8 13 29.88 1012 10 16 0.00 0.00
6:53 am 06:53 Mostly Cloudy 22 -5.6 17 -8.3 81 81 NW 13 20 29.91 1013 10 16 0.00 0.00
7:53 am 07:53 Cloudy 22 -5.6 17 -8.3 81 81 NNW 14 22 29.92 1013 10 16 0.00 0.00
8:53 am 08:53 Partly Cloudy 22 -5.6 17 -8.3 81 81 NW 12 19 29.95 1014 10 16 0.00 0.00
9:53 am 09:53 Mostly Cloudy 23 -5 17 -8.3 78 78 NNW 14 22 29.96 1015 10 16 0.00 0.00
10:53 am 10:53 Mostly Cloudy 25 -3.9 17 -8.3 71 71 NNW 14 22 29.97 1015 9 14 0.00 0.00
11:53 am 11:53 Cloudy 25 -3.9 16 -8.9 68 68 NNW 14 22 29.98 1015 10 16 0.00 0.00
12:53 pm 12:53 Cloudy 25 -3.9 17 -8.3 71 71 NNW 12 19 29.99 1016 10 16 0.00 0.00
1:26 pm 13:26 Cloudy 24 -4.4 17 -8.3 74 74 NNW 12 19 30.03 1017 10 16 0.00 0.00
1:36 pm 13:36 Cloudy 24 -4.4 16 -8.9 71 71 NNW 13 20 30.02 1017 10 16 0.00 0.00
1:53 pm 13:53 Cloudy 24 -4.4 17 -8.3 74 74 NNW 12 19 29.98 1015 8 13 0.00 0.00
2:14 pm 14:14 Cloudy 24 -4.4 17 -8.3 74 74 NNW 12 19 30.02 1017 10 16 0.00 0.00
2:37 pm 14:37 Mostly Cloudy 24 -4.4 16 -8.9 71 71 NNW 9 15 30.02 1017 10 16 0.00 0.00
2:53 pm 14:53 Mostly Cloudy 24 -4.4 15 -9.4 68 68 NNW 10 17 29.99 1016 10 16 0.00 0.00
3:53 pm 15:53 Cloudy 22 -5.6 13 -10.6 68 68 N 12 19 30.03 1017 10 16 0.00 0.00
4:53 pm 16:53 Cloudy 20 -6.7 11 -11.7 67 67 N 10 17 30.04 1017 10 16 0.00 0.00
5:53 pm 17:53 Mostly Cloudy 18 -7.8 10 -12.2 71 71 N 7 11 30.04 1017 10 16 0.00 0.00
6:53 pm 18:53 Clear 14 -10 9 -12.8 80 80 NNE 6 9 30.05 1018 10 16 0.00 0.00
7:53 pm 19:53 Clear 13 -10.6 5 -15 70 70 ENE 5 7 30.07 1018 10 16 0.00 0.00
8:53 pm 20:53 Mostly Cloudy 14 -10 5 -15 67 67 ENE 6 9 30.06 1018 10 16 0.00 0.00
9:53 pm 21:53 Clear 12 -11.1 5 -15 73 73 ENE 3 6 30.06 1018 10 16 0.00 0.00
10:53 pm 22:53 Cloudy 12 -11.1 5 -15 73 73 ESE 5 7 30.04 1017 10 16 0.00 0.00
11:53 pm 23:53 Cloudy 12 -11.1 5 -15 73 73 SE 3 6 30.06 1018 10 16 0.00 0.00

Powered by AerisWeather